Location: Denkzell
(49.0613°N, 12.6942°E)
Time: 12:34:22
(UTC+00:00)

Daily predictions for brighter satellites

Satellite Brightness Start Highest point End
(mag) Time Altitude Azimuth Time Altitude Azimuth Time Altitude Azimuth
Cosmos 2369 3.8 18:51:18 10° NNW 18:57:05 87° WSW 19:02:49 10° SSE
Cosmos 2082 Rocket 2.6 18:52:08 10° S 18:57:29 43° ESE 19:02:50 10° NE
CENTAUR R/B 3.7 18:53:31 10° SSE 18:57:33 19° ESE 19:02:00 10° ENE
COSMOS 2406 3.4 18:51:54 10° SSW 18:57:39 87° WNW 19:03:26 10° NNE
Cosmos 407 Rocket 3.6 18:52:57 10° S 18:58:11 61° ESE 19:03:23 10° NNE
Cosmos 1190 Rocket 4.2 18:55:14 10° S 19:00:20 53° ESE 19:05:31 10° NNE
Lacrosse 5 2.4 18:55:45 10° NW 19:00:45 54° NNE 19:05:43 10° ESE
IRIDIUM 106 4.3 18:56:42 10° S 19:01:53 71° E 19:07:06 10° N
Cosmos 2278 3.8 18:58:30 10° NNW 19:04:14 75° ENE 19:09:56 10° SSE
Terra 4.1 19:04:17 10° ENE 19:05:09 10° NE 19:06:00 10° NE
Cosmos 2322 Rocket 3.7 19:00:31 10° NNW 19:05:10 25° NE 19:09:48 10° E
Cosmos 1633 Rocket 3.7 19:01:32 10° SSE 19:05:35 37° E 19:09:39 10° NNE
Cosmos 1238 Rocket 4.3 19:06:00 10° ESE 19:06:58 11° E 19:07:56 10° ENE
MOS 1 Rocket 4.2 19:02:22 10° N 19:07:47 66° WNW 19:13:01 10° SSW
Cosmos 1140 Rocket 3.6 19:04:46 10° S 19:09:55 60° ESE 19:15:06 10° NNE
USA 276 2.3 19:07:50 10° W 19:11:01 72° N 19:14:11 10° E
MetOp-A 4.3 19:06:55 10° SSE 19:12:17 80° WSW 19:17:41 10° NNW
X-37B 1.2 19:12:16 10° WSW 19:15:15 39° S 19:18:09 11° ESE
Cosmos 2360 Rocket 4.0 19:11:31 10° N 19:15:31 19° NE 19:19:30 10° E
ATLAS 5 CENTAUR R/B 4.2 19:11:35 10° WNW 19:16:26 27° WSW 19:21:50 10° S
Cosmos 921 Rocket 3.5 19:13:03 10° N 19:17:04 41° ENE 19:20:55 11° SE
Cosmos 1707 Rocket 3.5 19:14:49 10° N 19:19:11 90° ENE 19:23:31 10° S
FALCON 9 DEB 3.1 19:15:47 10° WSW 19:19:17 83° SSE 19:22:48 10° ENE
USA 186 3.9 19:21:33 10° SW 19:23:01 16° W 19:24:31 10° NW
Genesis I 3.7 19:19:47 10° NW 19:23:36 57° SW 19:27:24 10° SSE
OBJECT-B 1.1 19:21:38 10° S 19:24:54 71° WSW 19:28:13 10° NNW
Cosmos 1980 Rocket 2.3 19:19:30 10° NNW 19:25:14 87° WSW 19:30:53 10° SSE
CZ-2C R/B 3.7 19:23:49 10° NNE 19:28:25 68° ESE 19:32:54 10° S
Intercosmos 25 3.8 19:25:50 10° NNW 19:29:47 55° W 19:32:55 10° S
Cosmos 1470 Rocket 4.1 19:29:12 10° SSE 19:33:18 40° E 19:37:24 10° NNE
Cosmos 1833 Rocket 3.2 19:31:40 10° SW 19:37:14 64° WNW 19:42:52 10° NNE
NOSS 3-2 (A) 3.4 19:31:49 10° SSW 19:37:22 55° ESE 19:43:42 10° NE
Meteor 1-4 Rocket 2.6 19:34:09 10° NNW 19:37:38 73° W 19:41:04 10° S
Cosmos 1184 Rocket 2.9 19:34:40 10° S 19:37:53 55° E 19:41:09 10° NNE
Cosmos 1697 Rocket 3.9 19:33:09 10° NW 19:38:21 40° WSW 19:43:32 10° S
Meteor 2-20 Rocket 4.5 19:33:03 10° N 19:39:15 76° E 19:45:23 10° SSE
USA 267 3.7 19:33:27 10° ENE 19:39:25 36° SE 19:45:20 10° SSW
Sich 1 3.8 19:35:18 10° SSW 19:39:41 58° WNW 19:44:05 10° N
SPOT 5 4.0 19:40:40 14° ESE 19:43:19 24° ENE 19:46:52 10° N
Cosmos 405 Rocket 3.3 19:42:21 14° SSE 19:45:01 34° E 19:48:27 10° NNE
SL-27 R/B 4.1 19:46:33 16° E 19:46:33 16° E 19:48:33 10° ENE
Cosmos 1862 Rocket 3.5 19:42:09 10° N 19:46:38 86° E 19:50:56 11° S
NOSS 3-2 (C) 3.7 19:41:28 10° S 19:46:47 41° ESE 19:52:46 10° NE
Cosmos 1437 Rocket 3.7 19:44:36 10° N 19:48:01 31° ENE 19:49:58 19° ESE
SPOT 1/Viking Rocket 3.9 19:45:04 15° SE 19:49:08 50° ENE 19:54:10 10° N
Cosmos 1934 Rocket 4.1 19:44:32 10° S 19:50:55 88° ESE 19:57:20 10° N
Landsat 7 3.9 19:48:45 16° SSE 19:52:32 61° ENE 19:57:15 10° N
Resurs 01 Rocket 1.9 19:48:15 10° S 19:52:39 66° WSW 19:57:05 10° NNW
Cosmos 2333 Rocket 4.3 19:48:57 10° N 19:52:44 17° NE 19:56:30 10° ENE
USA 32 4.0 19:48:37 10° S 19:53:47 66° E 19:58:59 10° N
Cosmos 676 Rocket 4.1 19:53:38 10° SSW 19:58:58 86° WNW 20:04:21 10° NNE
ERS-1 Rocket 3.6 19:56:13 19° SE 19:59:24 41° ENE 20:04:07 10° N
GP-B 3.0 19:56:22 10° N 20:00:50 79° E 20:04:53 12° S
Okean 1 3.4 19:59:42 10° N 20:03:44 62° ENE 20:06:08 23° SSE
Cosmos 841 Rocket 4.2 19:59:26 10° NNW 20:04:24 41° ENE 20:07:29 21° ESE
Meteor 1-19 Rocket 4.2 19:59:11 10° N 20:04:35 62° ENE 20:08:20 20° SSE
CARTOSAT-1 4.0 20:06:56 24° SE 20:09:09 45° ENE 20:13:18 10° N
BREEZE-M DEB (TANK) 1.3 20:08:59 10° W 20:11:28 89° N 20:11:49 54° E
Cosmos 468 Rocket 4.0 20:06:37 10° NNW 20:11:58 90° ENE 20:15:29 22° SSE
Cosmos 1867 4.0 20:07:10 10° SW 20:12:35 65° NW 20:18:02 10° NE
Cosmos 1933 Rocket 3.5 20:10:14 14° S 20:13:59 73° E 20:18:27 10° NNE
USA 234 3.4 20:10:46 17° ESE 20:16:03 73° NNE 20:22:35 10° NW
SL-4 R/B 2.2 20:13:05 10° W 20:17:00 63° N 20:20:23 12° ENE
ATLAS 3B R/B 3.4 20:14:38 21° SSE 20:17:15 27° ESE 20:22:40 10° ENE
IGS 5A 3.5 20:15:47 20° S 20:18:33 75° WSW 20:22:43 10° NNW
Meteor 2-4 Rocket 3.9 20:15:52 10° N 20:21:25 53° ENE 20:24:18 27° SE
Cosmos 1869 Rocket 4.1 20:23:53 30° SE 20:25:17 39° E 20:29:28 10° NNE
Iridium 4 Rocket 4.0 20:25:27 26° ESE 20:26:15 28° E 20:29:51 10° NNE
Cosmos 1814 Rocket 4.4 20:23:01 10° NNW 20:28:07 51° ENE 20:30:36 28° ESE
Meteor 1-14 Rocket 4.3 20:23:17 15° S 20:28:10 70° E 20:34:07 10° NNE
Spot 2 Rocket 3.8 20:25:35 19° S 20:29:17 67° WSW 20:34:23 10° NNW
CZ-4B DEB 4.2 20:30:11 46° SSE 20:31:04 79° ENE 20:34:25 10° N
SL-16 R/B 2.2 20:25:23 10° NNW 20:31:06 87° WSW 20:34:14 28° SSE
Cosmos 2219 Rocket 3.8 20:26:54 10° N 20:31:31 24° NE 20:35:05 14° E
Cosmos 1741 Rocket 3.9 20:28:06 10° SSW 20:33:20 74° ESE 20:38:38 10° NNE
Okean 1-7 2.9 20:29:46 10° N 20:34:07 86° E 20:36:00 33° SSE
Cosmos 1703 Rocket 3.5 20:30:50 10° N 20:35:12 83° W 20:37:16 31° S
USA 238 DEB 3.9 20:29:56 10° SW 20:36:35 76° NW 20:43:35 10° NE
USA 238 3.8 20:30:03 10° SW 20:36:42 76° NW 20:43:42 10° NE
ATLAS 5 CENTAUR R/B 2.5 20:34:51 10° NNW 20:37:18 42° NE 20:39:34 24° E
Cosmos 1570 Rocket 4.0 20:34:55 10° NNW 20:40:17 77° ENE 20:42:42 34° SSE
Meteor 1-18 Rocket 4.5 20:34:45 10° NNW 20:40:17 65° W 20:44:01 21° S
Cosmos 2082 Rocket 3.7 20:36:22 10° WSW 20:41:39 38° NW 20:46:56 10° NNE
Terra 1.9 20:40:06 35° SE 20:41:57 61° ENE 20:46:40 10° N
Lacrosse 5 2.4 20:38:51 10° WNW 20:43:43 47° SW 20:45:36 32° S
Cosmos 1238 Rocket 3.9 20:44:12 15° SW 20:46:11 31° WNW 20:48:55 10° N
CENTAUR R/B 2.5 20:41:00 10° SW 20:47:01 87° SE 20:54:13 10° NE
USA 276 2.3 20:44:12 10° W 20:47:07 55° SW 20:47:07 55° SW
Cosmos 2100 Rocket 3.9 20:45:27 27° S 20:48:53 67° E 20:55:00 10° NNE
Cosmos 2208 Rocket 4.0 20:43:47 10° NNW 20:49:04 76° ENE 20:51:06 38° SE
Cosmos 1763 Rocket 4.1 20:44:27 10° NNW 20:49:39 53° WSW 20:52:27 26° S
Cosmos 2322 Rocket 2.2 20:44:09 10° NNW 20:49:51 77° WSW 20:52:29 33° SSE
X-37B 2.4 20:48:46 10° WSW 20:50:24 22° SW 20:50:24 22° SW
Cosmos 2173 Rocket 3.9 20:52:59 29° S 20:56:15 71° E 21:02:20 10° NNE
FALCON 9 DEB 4.3 20:53:10 10° W 20:56:32 43° N 20:58:46 19° ENE
Cosmos 1733 Rocket 4.1 20:57:31 28° E 20:57:31 28° E 21:01:13 10° NNE
Cosmos 2237 4.2 20:52:00 10° NNW 20:57:45 79° ENE 20:59:59 39° SE
Cosmos 2084 Rocket 3.4 20:54:45 10° SW 20:58:58 83° NW 21:03:18 10° NE
Cosmos 1500 3.0 20:59:53 63° S 21:00:27 87° E 21:04:13 10° N
Cosmos 2360 Rocket 2.2 20:54:49 10° NNW 21:00:31 75° ENE 21:02:39 40° SE
Cosmos 44 3.7 21:00:14 10° NW 21:05:03 57° WSW 21:06:35 40° S
Cosmos 1725 Rocket 4.3 21:04:43 36° SE 21:06:47 50° E 21:12:51 10° NNE
SAR-Lupe-2 3.8 21:05:54 10° N 21:09:29 67° WNW 21:10:12 51° SW
Cosmos 1356 4.4 21:10:48 36° NE 21:10:48 36° NE 21:13:13 10° NNE
Cosmos 1666 3.1 21:11:57 48° ENE 21:11:57 48° ENE 21:15:10 10° NNE
Cosmos 1459 Rocket 4.0 21:08:09 29° S 21:11:40 89° E 21:18:06 10° N
Cosmos 2016 Rocket 4.0 21:13:22 38° SSE 21:15:54 69° E 21:22:15 10° NNE
Cosmos 1242 Rocket 3.2 21:13:25 10° N 21:16:36 43° ENE 21:16:36 43° ENE
COSMOS 2428 3.5 21:14:15 10° NNW 21:19:41 41° NE 21:21:52 30° E
Cosmos 44 Rocket 4.2 21:15:43 10° NNW 21:20:27 42° NE 21:22:15 30° E
Cosmos 2221 Rocket 3.5 21:16:19 10° N 21:20:49 89° E 21:21:32 64° S
Cosmos 2346 Rocket 4.3 21:14:59 10° N 21:21:04 85° ENE 21:23:12 43° SSE
SPOT 5 3.5 21:19:53 33° SW 21:21:12 42° W 21:25:25 10° NNW
SL-27 R/B 3.8 21:20:03 26° WSW 21:21:15 35° WNW 21:24:21 10° N
USA 267 3.2 21:16:17 10° NE 21:22:51 84° NNW 21:29:25 10° WSW
Cosmos 1743 4.5 21:28:20 22° ENE 21:28:20 22° ENE 21:30:30 10° NNE
Cosmos 540 Rocket 4.1 21:23:19 10° NNW 21:28:16 47° WSW 21:29:45 37° SSW
Lacrosse 4 Rocket 2.3 21:29:56 36° ENE 21:29:56 36° ENE 21:32:43 10° NE
Cosmos 1378 4.3 21:25:17 10° N 21:28:16 34° NE 21:28:16 34° NE
Cosmos 2237 Rocket 3.9 21:24:50 10° N 21:29:24 24° NE 21:32:28 16° E
ERBS 3.9 21:26:53 10° NW 21:29:51 29° NNE 21:30:18 28° NE
Cosmos 1864 Rocket 4.4 21:27:52 44° SSE 21:29:56 73° E 21:36:12 10° NNE
CRYOSAT 2 4.4 21:26:57 10° NNE 21:31:47 57° E 21:32:12 55° ESE
Cosmos 1378 Rocket 4.1 21:28:55 10° N 21:33:14 46° ENE 21:33:20 46° E
Cosmos 1271 Rocket 3.7 21:32:20 10° N 21:35:26 35° NE 21:35:26 35° NE
NOSS 3-2 (C) 4.3 21:31:47 10° WSW 21:37:32 52° NW 21:44:12 10° NE
Cosmos 2333 Rocket 2.4 21:32:27 10° NNW 21:38:13 64° ENE 21:39:44 47° ESE
ERS-1 Rocket 4.4 21:36:12 22° SW 21:38:18 30° W 21:42:43 10° NNW
Cosmos 2061 Rocket 3.9 21:37:26 39° SSW 21:39:55 84° W 21:46:09 10° N
Meteor 1-11 Rocket 3.7 21:42:34 45° SSW 21:44:26 81° WNW 21:50:17 10° N
Cosmos 1066 Rocket 4.1 21:40:55 10° NNW 21:46:39 88° W 21:47:48 58° S
Cosmos 2233 Rocket 4.0 21:45:58 50° SSE 21:47:27 64° E 21:53:43 10° NNE
Cosmos 1802 Rocket 4.3 21:45:24 30° SSW 21:48:40 63° WNW 21:54:58 10° N
Cosmos 1975 Rocket 4.5 21:49:16 10° N 21:53:09 28° ENE 21:53:12 28° ENE
COSMOS 2487 3.7 21:55:26 38° NNE 21:55:26 38° NNE 21:57:41 10° NNE
SL-4 R/B 2.7 21:53:06 10° WNW 21:55:57 45° NW 21:55:57 45° NW
Thor Agena Rocket 3.6 21:53:07 10° NNE 21:58:10 57° ESE 21:58:13 57° ESE
USA 234 3.6 21:58:07 42° SSW 21:59:19 46° SW 22:05:35 10° WNW
Spot 4 3.7 22:03:39 81° SSE 22:03:54 90° WSW 22:08:46 10° NNW
ATLAS 3B R/B 2.7 22:01:44 15° SW 22:07:20 75° NW 22:14:03 10° NE
Cosmos 2227 Rocket 4.2 22:09:36 14° E 22:09:36 14° E 22:11:35 10° ENE
Cosmos 1536 3.8 22:12:10 41° WNW 22:12:11 41° WNW 22:15:59 10° N
SL-16 R/B 4.3 22:11:12 10° WNW 22:14:20 15° W 22:16:06 13° WSW
Cosmos 2219 Rocket 2.0 22:10:25 10° NNW 22:16:07 79° WSW 22:16:47 69° S
Cosmos 1674 Rocket 4.1 22:14:08 10° NNW 22:18:08 50° W 22:18:08 50° W
NOSS 0 Rocket 4.1 22:12:47 10° NNW 22:19:02 67° ENE 22:20:35 50° ESE
Terra 3.8 22:19:00 17° WSW 22:20:06 19° W 22:23:28 10° NW
Cosmos 2322 4.0 22:17:39 10° NW 22:23:08 50° WSW 22:23:34 49° SW
Cosmos 1842 4.2 22:20:29 10° N 22:23:29 45° NNE 22:23:29 45° NNE
EO 1 Del DPAF 4.2 22:21:03 10° NNE 22:23:43 45° NNE 22:23:43 45° NNE
MOS 1-B Rocket 4.2 22:22:42 10° N 22:28:14 60° WNW 22:29:54 43° SW
Cosmos 1503 Rocket 3.9 22:29:01 73° ESE 22:29:02 73° ESE 22:34:25 10° NNE
Okean 2 3.9 22:28:23 10° N 22:31:45 58° N 22:31:45 58° N
Cosmos 2322 Rocket 4.4 22:30:22 10° WNW 22:32:56 13° W 22:34:18 12° WSW
Geosat 4.2 22:33:13 55° WSW 22:33:13 55° WSW 22:38:04 10° NW
Meteor 2-11 Rocket 4.3 22:32:28 63° SSW 22:33:33 85° W 22:39:42 10° N
ALOS 2 2.8 22:35:05 70° NNW 22:35:05 70° NNW 22:39:01 10° NNW
Cosmos 1486 Rocket 4.3 22:33:50 54° WSW 22:34:42 63° WNW 22:39:53 10° NNE
Cosmos 1733 Rocket 4.4 22:34:35 31° W 22:35:08 32° WNW 22:39:09 10° N
CENTAUR R/B 4.2 22:32:40 10° W 22:38:34 35° NNW 22:45:29 10° NE
Cosmos 1975 3.6 22:43:45 49° NNE 22:43:45 49° NNE 22:46:46 10° NNE
SL-16 R/B 3.7 22:38:28 10° NNW 22:43:30 31° NE 22:46:19 21° E
Cosmos 2360 Rocket 3.9 22:39:54 10° NW 22:43:53 20° W 22:44:24 20° WSW
Meteor 1-21 4.1 22:41:30 10° NNW 22:47:21 87° ENE 22:47:53 75° SSE
Meteor 1-24 4.5 22:42:34 10° NNW 22:48:09 88° W 22:48:28 80° S
SL-24 DEB 4.3 22:49:27 10° N 22:53:57 78° N 22:53:57 78° N
Cosmos 773 Rocket 3.8 22:49:40 10° NNW 22:54:50 84° ENE 22:54:50 84° ENE
Helios 1A 3.5 22:59:36 57° NNE 22:59:36 57° NNE 23:03:08 10° N
Cosmos 968 Rocket 4.2 22:58:02 41° W 22:59:01 46° WNW 23:04:00 10° NNE
Cosmos 1782 Rocket 4.0 23:00:31 60° NNW 23:00:31 60° NNW 23:04:12 10° N
Cosmos 2297 Rocket 2.8 23:02:01 41° E 23:02:01 41° E 23:06:55 10° NE
Cosmos 44 Rocket 4.4 22:57:20 10° NW 23:00:56 35° W 23:00:56 35° W
Cosmos 1743 4.4 23:03:24 28° WNW 23:03:24 28° WNW 23:06:23 10° N
Meteor 2-9 Rocket 4.1 23:03:15 75° SW 23:03:43 83° WNW 23:09:31 10° N
COSMOS 2428 3.4 22:58:39 10° NW 23:03:51 40° WSW 23:03:51 40° WSW
USA 267 4.1 22:59:19 10° ENE 23:05:33 49° NNW 23:11:47 10° W
Cosmos 1980 3.5 23:00:08 10° NNW 23:05:51 84° WSW 23:06:08 80° S
Cosmos 1538 Rocket 4.0 23:00:53 10° NNW 23:06:03 69° ENE 23:06:16 68° E
Lacrosse 4 Rocket 3.3 23:06:12 22° WNW 23:07:33 26° NW 23:11:05 10° NNE
Cosmos 1607 4.3 23:04:39 10° NW 23:11:04 64° NE 23:13:36 37° ESE
In-Cosmos 22 4.3 23:06:47 10° N 23:12:18 61° ENE 23:12:49 58° E
Cosmos 2219 3.3 23:13:13 58° ESE 23:13:13 58° ESE 23:18:35 10° NE
Cosmos 2237 Rocket 2.0 23:08:27 10° NNW 23:14:07 79° WSW 23:14:16 78° SW
Cosmos 2026 Rocket 4.5 23:13:43 10° N 23:19:39 49° ENE 23:21:07 41° ESE
Cosmos 2333 Rocket 3.6 23:17:28 10° NW 23:21:43 24° W 23:21:43 24° W
Timation 2 Rocket 3.8 23:26:06 66° SW 23:27:01 84° WNW 23:33:04 10° NNE
Meteor 1-12 Rocket 4.2 23:28:45 70° SSE 23:29:24 80° E 23:35:27 10° NNE
Cosmos 1975 Rocket 4.4 23:27:00 10° NNW 23:30:20 32° WNW 23:30:20 32° WNW
Cosmos 1300 Rocket 3.9 23:34:20 60° N 23:34:20 60° N 23:37:55 10° N
Cosmos 1674 4.1 23:30:27 10° N 23:33:07 34° NE 23:33:07 34° NE
Cosmos 1634 Rocket 4.3 23:35:14 49° SE 23:36:17 55° E 23:42:18 10° NNE
Cosmos 1464 Rocket 4.4 23:39:31 45° WSW 23:40:44 51° WNW 23:46:46 10° N
Helios 1B rocket 3.2 23:41:49 10° NNE 23:45:01 46° NE 23:45:01 46° NE
Cosmos 1680 Rocket 4.0 23:41:07 10° NNW 23:46:16 54° ENE 23:47:20 45° ESE
Meteor 2-5 Rocket 4.3 23:41:36 10° N 23:47:03 50° ENE 23:48:23 41° ESE
CZ-2D R/B 3.8 23:42:50 10° NE 23:47:04 22° E 23:48:16 21° ESE
Cosmos 1707 4.3 23:44:55 10° NNW 23:47:18 30° NW 23:47:18 30° NW
Okean 2 Rocket 3.5 23:50:15 56° NW 23:50:15 56° NW 23:54:17 10° N
Okean 1 Rocket 3.7 23:51:41 47° ENE 23:51:41 47° ENE 23:55:27 10° NNE
Nadezhda 4 Rocket 4.3 23:45:13 10° NNW 23:51:16 51° W 23:52:00 49° WSW
Cosmos 2227 Rocket 2.0 23:51:25 76° S 23:51:50 83° ESE 23:57:33 10° NNE
Cosmos 1777 Rocket 4.1 23:52:43 65° W 23:53:07 67° WNW 23:58:25 10° NNE
Cosmos 1025 Rocket 3.9 23:50:08 10° NNW 23:53:18 40° NW 23:53:18 40° NW
SJ 16-02 2.3 23:55:08 39° E 23:55:08 39° E 23:58:41 10° NE
